ONEWEB-0218 (48214 NORAD) Tracking and Keplerian Element Data

This shows tracking and keplerian element data for the satellite.

Feedback or suggestion? Click here.




ElementValue
Catalog48214
NameONEWEB-0218
Epoch Orbit196
Epoch Day173.83334491
Epoch Year2021
RAAN294.0586
Inclination87.6444
Eccentricity0.0013008
Argument of Perigee51.9794
Mean Anonmoly11.665
Mean Motion14.55484415
Decay Rate-0.00891308
L11 48214U 21031E 21173.83334491 -.00891308 00000-0 -21754+0 0 9994
L22 48214 87.6444 294.0586 0013008 51.9794 11.6650 14.55484415 1961

Live tracking and technical data element details for ONEWEB-0218 (NORAD 48214). ONEWEB-0218 can be tracked NOW for your location showing map with azimuth and elevation plus other details from your city location.

Track the satellite on the map from your city or location and see movement details for azimuth, elevation, latitude, longitude, range, height, and movement on the map or in text.







IsCatalogInMostPopularTable: catalog: 48214, numindb: 22
Update: records affected: 1



GetName: 48214 ONEWEB-0218

Hit Count: updated at: Thu, 24 Jun 2021 03:40:56 GMT